Location: Gellin
(53.4498°N, 14.3207°E)
Time: 02:02:20
(UTC+00:00)

Cosmos 2219 Rocket - Pass Details

Date: 03 March 2021
Orbit: 827 x 848 km, 71.0° (Epoch: 11 April)

Event Time Altitude Azimuth Distance (km) Brightness Sun altitude
Rises 19:26:03 0° 203° (SSW) 3,357 5.3 -24.3°
Reaches altitude 10° 19:28:28 10° 202° (SSW) 2,430 4.6 -24.7°
Maximum altitude 19:34:01 75° 118° (ESE) 865 2.0 -25.4°
Drops below altitude 10° 19:39:39 10° 34° (NE) 2,457 4.5 -26.2°
Sets 19:42:06 0° 33° (NNE) 3,399 5.3 -26.5°
